Location: Sungai Jaoh
(2.9167°N, 113.9167°E)
Time: 05:47:54
(UTC+00:00)

USA 215 - Pass Details

Date: 30 November 2020
Orbit: 1098 x 1110 km, 123.0° (Epoch: 22 January)

Event Time Altitude Azimuth Distance (km) Brightness Sun altitude
Rises 20:35:12 0° 148° (SSE) 3,905 7.0 -23.8°
Reaches altitude 10° 20:37:41 10° 150° (SSE) 2,947 6.2 -23.2°
Maximum altitude 20:44:10 73° 234° (SW) 1,144 3.2 -21.7°
Enters shadow 20:47:13 34° 310° (NW) 1,721 3.8 -21.0°
